This demonstration page uses our WeatherBlox Daily Observations layout. Learn more.

Left ArrowRight Arrow

34.16533, -84.80231

Hourly Observations for February 28, 2022

Temp ( °F °C ) Dew Point ( °F °C ) Humidity (%) Winds ( mph kmh ) Pressure ( in mb ) Visibility ( mi km ) Precip ( " mm )
12:15 am 00:15 Clear 43 6 37 3 81 81 Calm 30.20 1023 10 16 0.00 0.00
12:35 am 00:35 Clear 43 6 36 2 76 76 Calm 30.19 1022 10 16 0.00 0.00
12:55 am 00:55 Mostly Cloudy 43 6 36 2 76 76 Calm 30.19 1022 10 16 0.00 0.00
1:15 am 01:15 Cloudy 43 6 36 2 76 76 Calm 30.19 1022 10 16 0.00 0.00
1:35 am 01:35 Partly Cloudy 41 5 36 2 81 81 Calm 30.19 1022 10 16 0.00 0.00
1:55 am 01:55 Clear 41 5 36 2 81 81 Calm 30.19 1022 10 16 0.00 0.00
2:15 am 02:15 Clear 39 4 36 2 87 87 Calm 30.20 1023 10 16 0.00 0.00
2:35 am 02:35 Mostly Clear 39 4 36 2 87 87 Calm 30.20 1023 10 16 0.00 0.00
2:55 am 02:55 Clear 39 4 34 1 81 81 Calm 30.20 1023 10 16 0.00 0.00
3:15 am 03:15 Clear 39 4 34 1 81 81 Calm 30.20 1023 10 16 0.00 0.00
3:35 am 03:35 Clear 39 4 34 1 81 81 Calm 30.20 1023 10 16 0.00 0.00
3:55 am 03:55 Clear 39 4 34 1 81 81 N 3 6 30.19 1022 10 16 0.00 0.00
4:15 am 04:15 Clear 39 4 34 1 81 81 Calm 30.19 1022 10 16 0.00 0.00
4:35 am 04:35 Clear 39 4 34 1 81 81 Calm 30.20 1023 10 16 0.00 0.00
4:55 am 04:55 Clear 37 3 34 1 87 87 Calm 30.20 1023 10 16 0.00 0.00
5:15 am 05:15 Clear 36 2 34 1 93 93 Calm 30.20 1023 10 16 0.00 0.00
5:35 am 05:35 Clear 36 2 34 1 93 93 Calm 30.21 1023 10 16 0.00 0.00
5:55 am 05:55 Clear 36 2 34 1 93 93 Calm 30.22 1023 10 16 0.00 0.00
6:15 am 06:15 Clear 34 1 32 0 93 93 Calm 30.24 1024 10 16 0.00 0.00
6:35 am 06:35 Clear 34 1 32 0 93 93 Calm 30.25 1024 10 16 0.00 0.00
6:55 am 06:55 Mostly Clear 34 1 32 0 93 93 Calm 30.25 1024 10 16 0.00 0.00
7:15 am 07:15 Sunny 34 1 32 0 93 93 Calm 30.26 1025 10 16 0.00 0.00
7:35 am 07:35 Partly Cloudy 34 1 32 0 93 93 Calm 30.27 1025 9 14 0.00 0.00
7:55 am 07:55 Partly Cloudy 36 2 34 1 93 93 Calm 30.26 1025 9 14 0.00 0.00
8:15 am 08:15 Sunny 37 3 32 0 81 81 Calm 30.27 1025 10 16 0.00 0.00
8:35 am 08:35 Sunny 37 3 34 1 87 87 Calm 30.28 1025 10 16 0.00 0.00
8:55 am 08:55 Sunny 39 4 34 1 81 81 Calm 30.29 1026 10 16 0.00 0.00
9:15 am 09:15 Sunny 41 5 34 1 76 76 Calm 30.28 1026 10 16 0.00 0.00
9:35 am 09:35 Sunny 43 6 34 1 71 71 Calm 30.28 1025 10 16 0.00 0.00
9:55 am 09:55 Sunny 45 7 34 1 66 66 Calm 30.27 1025 10 16 0.00 0.00
10:15 am 10:15 Sunny 46 8 34 1 62 62 Calm 30.27 1025 10 16 0.00 0.00
10:35 am 10:35 Sunny 48 9 36 2 62 62 Calm 30.27 1025 10 16 0.00 0.00
10:55 am 10:55 Sunny 48 9 36 2 62 62 Calm 30.27 1025 10 16 0.00 0.00
11:15 am 11:15 Sunny 52 11 37 3 58 58 VRB 3 6 30.27 1025 10 16 0.00 0.00
11:35 am 11:35 Sunny 54 12 36 2 51 51 Calm 30.25 1025 10 16 0.00 0.00
11:55 am 11:55 Sunny 54 12 37 3 54 54 Calm 30.25 1025 10 16 0.00 0.00
12:15 pm 12:15 Sunny 55 13 37 3 51 51 SW 6 9 30.24 1024 10 16 0.00 0.00
12:35 pm 12:35 Sunny 55 13 37 3 51 51 W 3 6 30.24 1024 9 14 0.00 0.00
12:55 pm 12:55 Sunny 57 14 36 2 44 44 Calm 30.23 1024 10 16 0.00 0.00
1:15 pm 13:15 Sunny 57 14 34 1 41 41 Calm 30.22 1023 10 16 0.00 0.00
1:35 pm 13:35 Sunny 57 14 34 1 41 41 NNE 7 11 30.20 1023 10 16 0.00 0.00
1:55 pm 13:55 Sunny 57 14 34 1 41 41 NNE 5 7 30.19 1022 7 11 0.00 0.00
2:15 pm 14:15 Sunny 59 15 34 1 39 39 Calm 30.18 1022 N/A 0.00 0.00
2:35 pm 14:35 Sunny 59 15 32 0 36 36 Calm 30.18 1022 N/A 0.00 0.00
2:55 pm 14:55 Sunny 59 15 32 0 36 36 NNE 5 7 30.17 1022 10 16 0.00 0.00
3:15 pm 15:15 Sunny 61 16 32 0 34 34 VRB 5 7 30.16 1021 10 16 0.00 0.00
3:35 pm 15:35 Sunny 61 16 30 -1 31 31 Calm 30.16 1021 10 16 0.00 0.00
3:55 pm 15:55 Sunny 61 16 28 -2 29 29 Calm 30.15 1021 10 16 0.00 0.00
4:15 pm 16:15 Sunny 61 16 30 -1 31 31 VRB 5 7 30.15 1021 10 16 0.00 0.00
4:35 pm 16:35 Sunny 61 16 28 -2 29 29 VRB 5 7 30.15 1021 10 16 0.00 0.00
4:55 pm 16:55 Sunny 61 16 27 -3 27 27 Calm 30.14 1021 10 16 0.00 0.00
5:15 pm 17:15 Sunny 61 16 28 -2 29 29 Calm 30.14 1021 10 16 0.00 0.00
5:35 pm 17:35 Sunny 61 16 27 -3 27 27 N 5 7 30.14 1021 10 16 0.00 0.00
5:55 pm 17:55 Sunny 59 15 25 -4 27 27 Calm 30.14 1021 10 16 0.00 0.00
6:15 pm 18:15 Sunny 59 15 27 -3 29 29 N 3 6 30.14 1021 10 16 0.00 0.00
6:35 pm 18:35 Clear 57 14 27 -3 31 31 Calm 30.15 1021 10 16 0.00 0.00
6:55 pm 18:55 Clear 55 13 30 -1 38 38 Calm 30.14 1021 10 16 0.00 0.00
7:15 pm 19:15 Clear 52 11 32 0 47 47 Calm 30.16 1021 10 16 0.00 0.00
7:35 pm 19:35 Clear 52 11 30 -1 44 44 Calm 30.16 1021 10 16 0.00 0.00
7:55 pm 19:55 Clear 50 10 32 0 50 50 Calm 30.16 1021 10 16 0.00 0.00
8:15 pm 20:15 Clear 48 9 32 0 54 54 Calm 30.16 1021 10 16 0.00 0.00
8:35 pm 20:35 Clear 46 8 34 1 62 62 Calm 30.18 1022 10 16 0.00 0.00
8:55 pm 20:55 Clear 45 7 36 2 71 71 Calm 30.20 1023 10 16 0.00 0.00
9:15 pm 21:15 Clear 45 7 36 2 71 71 Calm 30.20 1023 10 16 0.00 0.00
9:35 pm 21:35 Clear 43 6 36 2 76 76 Calm 30.20 1023 10 16 0.00 0.00
9:55 pm 21:55 Clear 41 5 37 3 87 87 Calm 30.20 1023 10 16 0.00 0.00
10:15 pm 22:15 Clear 41 5 34 1 76 76 Calm 30.20 1023 10 16 0.00 0.00
10:35 pm 22:35 Clear 41 5 36 2 81 81 Calm 30.19 1022 10 16 0.00 0.00
10:55 pm 22:55 Clear 39 4 36 2 87 87 Calm 30.21 1023 10 16 0.00 0.00
11:15 pm 23:15 Clear 39 4 36 2 87 87 Calm 30.20 1023 10 16 0.00 0.00
11:35 pm 23:35 Clear 39 4 34 1 81 81 Calm 30.20 1023 10 16 0.00 0.00
11:55 pm 23:55 Clear 37 3 34 1 87 87 Calm 30.20 1023 10 16 0.00 0.00

Powered by AerisWeather